THORAD AGENA D DEB

基本信息
目录编号:
19238
目录名称:
THORAD AGENA D DEB
国际标识:
1970-025PT
轨道中心:
EARTH
物体状态:
在轨
发射日期:
1970-04-08 UTC
轨道信息
数据来源: 国际轨道数据
星历时间: 2026-07-13T20:16:15+0800
半长轴: 7340.859km
偏心率: 0.004411
轨道倾角: 99.873°
近地点辐角: 23.560°
升交点赤经: 29.272°
平近点角: 5.665°
近地点: 930.341km
远地点: 995.103km
周期: 104.323分钟
每日圈数: 13.803285
详细信息
发射场:
AFWTR
轨道高度:
LEO
数据来源:
AOE Integration Group
参考系:
TEME
时间系统:
UTC
历元类型:
SGP4
2D轨道图
3D轨道图
轨道高度分析图
轨道倾角分析图
轨道综合分析图
查看轨道综合分析图